When you browse on this site, cookies collect data to enhance your experience and personalize the content and advertising you see.
Visit our Privacy Policy to learn more. By continuing to use the site, you agree to this use of cookies and data.
  • In Österreich
  • Länderverzeichnis
  • Für 7 Tage
  • Wassertemperatur
  • Satellitenkarten
  • Wetterkarte
  • News
  • Widgets
  • user-avatar
    Anmelden

    Stündliche Wetter Saurimo

    Heute, 21 Februar, Donnerstag

    Zeit Temperatur Niederschläge Wind Luftdruck Luftfeuchtigkeit
    00:00 +20°C° 1.4 mm 0 m/S 671 mmHg 92%
    01:00 +19°C° 0 mm 0 m/S 670 mmHg 94%
    02:00 +19°C° 1 mm 0 m/S 670 mmHg 95%
    03:00 +19°C° 1 mm 0 m/S 670 mmHg 96%
    04:00 +19°C° 1 mm 0 m/S 670 mmHg 96%
    05:00 +19°C° 0.1 mm 0 m/S 671 mmHg 95%
    06:00 +20°C° 0.1 mm 0 m/S 671 mmHg 95%
    07:00 +20°C° 0.1 mm 0 m/S 672 mmHg 94%
    08:00 +22°C° 1.2 mm 0 m/S 672 mmHg 89%
    09:00 +25°C° 1.2 mm 1 m/S 672 mmHg 84%
    10:00 +26°C° 1.2 mm 1 m/S 672 mmHg 79%
    11:00 +27°C° 2 mm 1 m/S 672 mmHg 78%
    12:00 +26°C° 2 mm 0 m/S 671 mmHg 76%
    13:00 +27°C° 2 mm 0 m/S 671 mmHg 75%
    14:00 +26°C° 2.7 mm 0 m/S 671 mmHg 78%
    15:00 +27°C° 2.7 mm 1 m/S 670 mmHg 82%
    16:00 +26°C° 2.7 mm 1 m/S 670 mmHg 85%
    17:00 +25°C° 0.6 mm 1 m/S 670 mmHg 87%
    18:00 +22°C° 0.6 mm 0 m/S 670 mmHg 89%
    19:00 +20°C° 0.6 mm 0 m/S 670 mmHg 91%
    20:00 +20°C° 0.6 mm 0 m/S 671 mmHg 92%
    21:00 +20°C° 0.6 mm 0 m/S 671 mmHg 93%
    22:00 +20°C° 0.6 mm 0 m/S 672 mmHg 94%
    23:00 +21°C° 1.5 mm 1 m/S 672 mmHg 95%

    Morgen, 22 Februar, Freitag

    Zeit Temperatur Niederschläge Wind Luftdruck Luftfeuchtigkeit
    00:00 +21°C° 1.5 mm 1 m/S 671 mmHg 96%
    01:00 +21°C° 1.5 mm 1 m/S 671 mmHg 96%
    02:00 +21°C° 1.2 mm 1 m/S 671 mmHg 96%
    03:00 +20°C° 1.2 mm 2 m/S 671 mmHg 97%
    04:00 +20°C° 1.2 mm 2 m/S 671 mmHg 97%
    05:00 +20°C° 0.3 mm 2 m/S 671 mmHg 97%
    06:00 +20°C° 0.3 mm 2 m/S 671 mmHg 97%
    07:00 +21°C° 0.3 mm 1 m/S 672 mmHg 96%
    08:00 +21°C° 0.3 mm 2 m/S 672 mmHg 94%
    09:00 +23°C° 0.3 mm 2 m/S 673 mmHg 91%
    10:00 +23°C° 0.3 mm 2 m/S 673 mmHg 88%
    11:00 +24°C° 0.7 mm 2 m/S 673 mmHg 85%
    12:00 +25°C° 0.7 mm 2 m/S 672 mmHg 82%
    13:00 +26°C° 0.7 mm 2 m/S 672 mmHg 79%
    14:00 +25°C° 0.7 mm 2 m/S 671 mmHg 82%
    15:00 +25°C° 0.7 mm 2 m/S 670 mmHg 85%
    16:00 +24°C° 0.7 mm 2 m/S 670 mmHg 87%
    17:00 +23°C° 0.9 mm 2 m/S 670 mmHg 90%
    18:00 +21°C° 0.9 mm 2 m/S 670 mmHg 92%
    19:00 +20°C° 0.9 mm 2 m/S 671 mmHg 94%
    20:00 +20°C° 0.5 mm 2 m/S 671 mmHg 95%
    21:00 +21°C° 0.5 mm 1 m/S 672 mmHg 95%
    22:00 +21°C° 0.5 mm 1 m/S 672 mmHg 96%
    23:00 +20°C° 1.6 mm 1 m/S 672 mmHg 96%

    übermorgen, 23 Februar, Samstag

    Zeit Temperatur Niederschläge Wind Luftdruck Luftfeuchtigkeit
    00:00 +20°C° 1.6 mm 1 m/S 671 mmHg 96%
    01:00 +20°C° 1.6 mm 1 m/S 671 mmHg 96%
    02:00 +20°C° 0.3 mm 1 m/S 671 mmHg 97%
    03:00 +20°C° 0.3 mm 1 m/S 670 mmHg 97%
    04:00 +20°C° 0.3 mm 1 m/S 670 mmHg 97%
    05:00 +20°C° 0.1 mm 1 m/S 670 mmHg 96%
    06:00 +18°C° 0.1 mm 0 m/S 671 mmHg 96%
    07:00 +18°C° 0.1 mm 0 m/S 671 mmHg 95%
    08:00 +19°C° 0.1 mm 0 m/S 671 mmHg 94%
    09:00 +19°C° 0.1 mm 0 m/S 672 mmHg 92%
    10:00 +20°C° 0.1 mm 0 m/S 672 mmHg 91%
    11:00 +22°C° 0.1 mm 1 m/S 672 mmHg 89%
    12:00 +23°C° 0.1 mm 1 m/S 671 mmHg 87%
    13:00 +23°C° 0.1 mm 1 m/S 671 mmHg 85%
    14:00 +23°C° 0 mm 2 m/S 670 mmHg 85%
    15:00 +23°C° 0 mm 2 m/S 670 mmHg 84%
    16:00 +23°C° 0 mm 2 m/S 669 mmHg 84%
    17:00 +22°C° 0 mm 1 m/S 669 mmHg 87%
    18:00 +21°C° 0 mm 1 m/S 670 mmHg 90%
    19:00 +18°C° 0 mm 0 m/S 670 mmHg 94%
    20:00 +18°C° 0 mm 0 m/S 670 mmHg 94%
    21:00 +18°C° 0 mm 0 m/S 671 mmHg 94%
    22:00 +18°C° 0 mm 0 m/S 671 mmHg 95%
    23:00 +18°C° 0 mm 0 m/S 670 mmHg 95%

    24 Februar, Sonntag

    Zeit Temperatur Niederschläge Wind Luftdruck Luftfeuchtigkeit
    00:00 +17°C° 0 mm 0 m/S 670 mmHg 96%
    01:00 +17°C° 0 mm 0 m/S 669 mmHg 96%
    02:00 +17°C° 0 mm 0 m/S 669 mmHg 96%
    03:00 +17°C° 0 mm 0 m/S 669 mmHg 96%
    04:00 +17°C° 0 mm 0 m/S 668 mmHg 96%
    05:00 +17°C° 0 mm 0 m/S 669 mmHg 95%
    06:00 +18°C° 0 mm 0 m/S 669 mmHg 94%
    07:00 +18°C° 0 mm 0 m/S 670 mmHg 93%
    08:00 +20°C° 0 mm 0 m/S 670 mmHg 87%
    09:00 +21°C° 0 mm 0 m/S 671 mmHg 82%
    10:00 +23°C° 0 mm 0 m/S 672 mmHg 76%
    11:00 +24°C° 0 mm 0 m/S 671 mmHg 71%
    12:00 +27°C° 0 mm 1 m/S 670 mmHg 66%
    13:00 +27°C° 0 mm 1 m/S 670 mmHg 61%
    14:00 +27°C° 0 mm 1 m/S 669 mmHg 61%
    15:00 +27°C° 0 mm 1 m/S 669 mmHg 62%
    16:00 +27°C° 0 mm 1 m/S 668 mmHg 63%
    17:00 +26°C° 0.1 mm 1 m/S 668 mmHg 70%
    18:00 +24°C° 0.1 mm 1 m/S 669 mmHg 76%
    19:00 +22°C° 0.1 mm 1 m/S 669 mmHg 82%
    20:00 +22°C° 0.2 mm 1 m/S 669 mmHg 84%
    21:00 +19°C° 0.2 mm 0 m/S 670 mmHg 85%
    22:00 +19°C° 0.2 mm 0 m/S 670 mmHg 86%
    23:00 +19°C° 0 mm 0 m/S 670 mmHg 88%

    25 Februar, Montag

    Zeit Temperatur Niederschläge Wind Luftdruck Luftfeuchtigkeit
    00:00 +18°C° 0 mm 0 m/S 669 mmHg 89%
    01:00 +20°C° 0 mm 1 m/S 669 mmHg 91%
    02:00 +17°C° 0 mm 0 m/S 668 mmHg 93%
    03:00 +17°C° 0 mm 0 m/S 668 mmHg 94%
    04:00 +17°C° 0 mm 0 m/S 668 mmHg 95%
    05:00 +17°C° 0 mm 0 m/S 668 mmHg 93%
    06:00 +18°C° 0 mm 0 m/S 669 mmHg 91%
    07:00 +19°C° 0 mm 0 m/S 670 mmHg 88%
    08:00 +22°C° 0 mm 0 m/S 670 mmHg 79%
    09:00 +27°C° 0 mm 1 m/S 671 mmHg 70%
    10:00 +29°C° 0 mm 1 m/S 672 mmHg 61%
    11:00 +30°C° 0 mm 1 m/S 671 mmHg 58%
    12:00 +30°C° 0 mm 1 m/S 670 mmHg 55%
    13:00 +31°C° 0 mm 2 m/S 669 mmHg 51%
    14:00 +30°C° 0.8 mm 2 m/S 669 mmHg 61%
    15:00 +28°C° 0.8 mm 2 m/S 668 mmHg 70%
    16:00 +27°C° 0.8 mm 3 m/S 668 mmHg 80%
    17:00 +25°C° 0.2 mm 2 m/S 668 mmHg 84%
    18:00 +24°C° 0.2 mm 2 m/S 669 mmHg 88%
    19:00 +22°C° 0.2 mm 1 m/S 669 mmHg 92%
    20:00 +22°C° 0 mm 1 m/S 669 mmHg 92%
    21:00 +21°C° 0 mm 1 m/S 670 mmHg 92%
    22:00 +19°C° 0 mm 0 m/S 670 mmHg 92%
    23:00 +19°C° 0 mm 0 m/S 670 mmHg 92%

    26 Februar, Dienstag

    Zeit Temperatur Niederschläge Wind Luftdruck Luftfeuchtigkeit
    00:00 +19°C° 0 mm 0 m/S 669 mmHg 93%
    01:00 +18°C° 0 mm 0 m/S 669 mmHg 93%
    02:00 +18°C° 0 mm 0 m/S 669 mmHg 93%
    03:00 +18°C° 0 mm 0 m/S 669 mmHg 94%
    04:00 +18°C° 0 mm 0 m/S 669 mmHg 94%
    05:00 +18°C° 0 mm 0 m/S 669 mmHg 92%
    06:00 +19°C° 0 mm 0 m/S 670 mmHg 90%
    07:00 +20°C° 0 mm 0 m/S 671 mmHg 88%
    08:00 +22°C° 0 mm 0 m/S 671 mmHg 79%
    09:00 +27°C° 0 mm 1 m/S 671 mmHg 69%
    10:00 +29°C° 0 mm 1 m/S 672 mmHg 60%
    11:00 +29°C° 1.9 mm 1 m/S 671 mmHg 64%
    12:00 +27°C° 1.9 mm 0 m/S 670 mmHg 68%
    13:00 +27°C° 1.9 mm 0 m/S 670 mmHg 71%
    14:00 +26°C° 0.6 mm 0 m/S 669 mmHg 69%
    15:00 +28°C° 0.6 mm 1 m/S 669 mmHg 67%
    16:00 +28°C° 0.6 mm 1 m/S 669 mmHg 65%
    17:00 +26°C° 0 mm 1 m/S 669 mmHg 71%
    18:00 +22°C° 0 mm 0 m/S 669 mmHg 77%
    19:00 +21°C° 0 mm 0 m/S 669 mmHg 83%
    20:00 +20°C° 0.4 mm 0 m/S 669 mmHg 85%
    21:00 +22°C° 0.4 mm 1 m/S 670 mmHg 87%
    22:00 +21°C° 0.4 mm 1 m/S 670 mmHg 89%
    23:00 +21°C° 0 mm 1 m/S 669 mmHg 90%
    Mehr zeigen